Weather History for Central Park, NY

Change the Weather History Date:

Tuesday, August 21, 2012

  Actual Average Record
Temperature  
Mean Temperature 74 °F 75 °F  
Max Temperature 82 °F 82 °F 96 °F (1955)
Min Temperature 66 °F 68 °F 53 °F (1922)
Degree Days  
Heating Degree Days 0 0  
Month to date heating degree days 0 0  
Since 1 June heating degree days 15 19  
Since 1 July heating degree days 0 0  
Cooling Degree Days 9 10  
Month to date cooling degree days 254 226  
Year to date cooling degree days 1003 862  
Since 1 June cooling degree days 888 793  
Growing Degree Days 24 (Base 50)    
Moisture  
Dew Point 57 °F    
Average Humidity 57    
Maximum Humidity 78    
Minimum Humidity 36    
Precipitation  
Precipitation 0.00 in 0.15 in 4.19 in (1888)
Month to date precipitation 2.16 3.14  
Year to date precipitation 23.84 31.94  
Snow  
Snow 0.00 in 0.00 in 0.00 in (2002)
Month to date snowfall 0.0 0.0  
Since 1 July snowfall 0.0 0.0  
Snow Depth 0.00 in    
Sea Level Pressure  
Sea Level Pressure 30.02 in    
Wind  
Wind Speed 3 mph (NNE)    
Max Wind Speed 8 mph    
Max Gust Speed 12 mph    
Visibility 10 miles    
Events      
T = Trace of Precipitation, MM = Missing Value Source: NWS Daily Summary

Daily Weather History Graph

Daily Weather History Graph

Search for Another Location

Airport:

Trip Planner

Search our weather history database for the weather conditions in past years. The results will help you decide how hot, cold, wet, or windy it might be!

Date:

Astronomy

Aug. 21, 2012 Rise Set
Actual Time 6:12 AM EDT 7:44 PM EDT
Civil Twilight 5:43 AM EDT 8:13 PM EDT
Nautical Twilight 5:08 AM EDT 8:48 PM EDT
Astronomical Twilight 4:31 AM EDT 9:24 PM EDT
Moon 10:42 AM EDT (8/21) 9:40 PM EDT (8/21)
Length of Visible Light 14h 29m
Length of Day
13h 32m
Waxing Crescent, 19% of the Moon is Illuminated
Aug 21
Waxing Crescent
Aug 24
First Quarter
Aug 31
Full
Sep 8
Last Quarter
Sep 15
New

Hourly Weather History & Observations

Time (EDT) Temp. Heat Index Dew Point Humidity Pressure Visibility Wind Dir Wind Speed Gust Speed Precip Events Conditions
12:51 AM 69.1 °F - 60.1 °F 73% 29.94 in 10.0 mi Calm Calm - N/A   Scattered Clouds
1:51 AM 69.1 °F - 59.0 °F 70% 29.94 in 10.0 mi Calm Calm - N/A   Mostly Cloudy
2:51 AM 69.1 °F - 57.9 °F 68% 29.95 in 10.0 mi WNW 3.5 mph - N/A   Overcast
3:51 AM 69.1 °F - 57.9 °F 68% 29.96 in 10.0 mi Calm Calm - N/A   Overcast
4:51 AM 68.0 °F - 59.0 °F 73% 29.96 in 10.0 mi Variable 4.6 mph - N/A   Clear
5:51 AM 66.9 °F - 59.0 °F 76% 29.98 in 10.0 mi Variable 4.6 mph - N/A   Clear
6:51 AM 66.0 °F - 59.0 °F 78% 29.99 in 10.0 mi Calm Calm - N/A   Clear
7:51 AM 66.9 °F - 59.0 °F 76% 30.01 in 10.0 mi Calm Calm - N/A   Clear
8:51 AM 68.0 °F - 59.0 °F 73% 30.02 in 10.0 mi Variable 4.6 mph - N/A   Clear
9:51 AM 72.0 °F - 59.0 °F 64% 30.02 in 10.0 mi Variable 5.8 mph - N/A   Clear
10:51 AM 73.9 °F - 57.9 °F 57% 30.03 in 10.0 mi ENE 5.8 mph - N/A   Clear
11:51 AM 79.0 °F - 57.0 °F 47% 30.03 in 10.0 mi ENE 4.6 mph - N/A   Clear
12:51 PM 79.0 °F - 53.1 °F 40% 30.04 in 10.0 mi Variable 4.6 mph - N/A   Clear
1:51 PM 79.0 °F - 53.1 °F 40% 30.04 in 10.0 mi Variable 3.5 mph - N/A   Clear
2:51 PM 80.1 °F - 51.1 °F 36% 30.03 in 10.0 mi WSW 4.6 mph - N/A   Clear
3:51 PM 81.0 °F 80.5 °F 54.0 °F 39% 30.02 in 10.0 mi Calm Calm - N/A   Partly Cloudy
4:51 PM 79.0 °F - 53.1 °F 40% 30.03 in 10.0 mi Calm Calm - N/A   Scattered Clouds
5:51 PM 77.0 °F - 59.0 °F 54% 30.03 in 10.0 mi Variable 3.5 mph - N/A   Scattered Clouds
6:51 PM 75.9 °F - 57.0 °F 52% 30.03 in 10.0 mi Variable 5.8 mph - N/A   Partly Cloudy
7:07 PM 75.9 °F - 55.9 °F 50% 30.06 in 10.0 mi Variable 3.5 mph - N/A   Partly Cloudy
7:51 PM 75.0 °F - 57.9 °F 55% 30.04 in 10.0 mi Variable 5.8 mph - N/A   Mostly Cloudy
8:51 PM 73.9 °F - 60.1 °F 62% 30.07 in 10.0 mi Variable 4.6 mph - N/A   Scattered Clouds
9:51 PM 73.0 °F - 59.0 °F 61% 30.09 in 10.0 mi South 4.6 mph - N/A   Scattered Clouds
10:51 PM 72.0 °F - 57.9 °F 61% 30.10 in 10.0 mi Calm Calm - N/A   Clear
11:51 PM 72.0 °F - 57.0 °F 59% 30.09 in 10.0 mi Calm Calm - N/A   Clear